Regional Weather Roundup
Issued by NWS State College, PA

Home | Current Version | Previous Version | Graphics & Text | Print | Product List | Glossary Off
Versions: 1 2 3 4 5 6 7 8 9 10 11 12 13 14 15 16 17 18 19 20 21 22 23 24 25 26 27 28 29 30 31 32 33 34 35 36 37 38 39 40 41 42 43 44 45 46 47 48 49 50

000
ASUS41 KCTP 201703
RWRCTP

REGIONAL WEATHER ROUNDUP
NATIONAL WEATHER SERVICE STATE COLLEGE PA
1200 PM EST MON FEB 20 2017

Note: "fair" indicates few or no clouds below 12,000 feet with no
significant weather and/or obstructions to visibility.

* = STATION THAT DOES NOT REPORT PRECIPITATION /E.G. RAIN...SNOW...ETC/
    THUNDER OR FOG.

PAZ002>004-007>009-013>016-020>023-029>032-201800-
WESTERN PENNSYLVANIA

CITY           SKY/WX    TMP DP  RH WIND       PRES   REMARKS
ERIE           SUNNY     45  33  63 NE12      30.31F
MEADVILLE      CLOUDY    49  30  48 NE12      30.27F
FRANKLIN*      CLOUDY    48  30  49 E7        30.28F
NEW CASTLE     FAIR      52  29  41 NE6       30.28F
BEAVER COUNTY  NOT AVBL
BUTLER*        SUNNY     52  30  43 CALM      30.27F
PITTSBURGH INT PTSUNNY   50  41  71 CALM      30.27F
PITTSBURGH     SUNNY     53  38  56 SE5       30.26F
INDIANA*       SUNNY     50  36  57 CALM      30.30F
LATROBE        SUNNY     54  39  58 SW5       30.29F
WASHINGTON CO* MOSUNNY   50  43  76 CALM      30.30F
$$

PAZ004>006-010>012-017>019-024>028-033>037-041-042-045-046-049>053-201800-
CENTRAL PENNSYLVANIA

CITY           SKY/WX    TMP DP  RH WIND       PRES   REMARKS
BRADFORD       SUNNY     45  30  55 N10       30.26F
DUBOIS         SUNNY     48  28  46 VRB5      30.26F
CLEARFIELD       N/A    N/A N/A N/A MISG      30.26F
JOHNSTOWN      SUNNY     50  36  58 NW8       30.24F
ALTOONA        SUNNY     54  30  40 NW6       30.26S
STATE COLLEGE  SUNNY     50  30  46 CALM      30.26F
WILLIAMSPORT   SUNNY     50  29  44 NW10G20   30.28S
SELINSGROVE    SUNNY     51  33  50 N8        30.30R
FT INDIANTOWN  SUNNY     53  30  41 NW9       30.26R
CAPITAL CITY   SUNNY     55  28  35 NW7       30.27S
HARRISBURG     MOSUNNY   55  31  39 N6        30.26S
YORK           SUNNY     56  32  40 N12       30.26S
$$

PAZ038>040-043-044-047-048-054-055-060>062-067>071-201800-
EASTERN PENNSYLVANIA

CITY           SKY/WX    TMP DP  RH WIND       PRES   REMARKS
SCRANTON       SUNNY     45  27  49 NW13G20   30.25S
MOUNT POCONO   SUNNY     40  22  48 NW15G25   30.19S
ALLENTOWN      SUNNY     51  29  42 NW9       30.24F
QUAKERTOWN*    SUNNY     48  30  49 N12       30.24S
READING        SUNNY     53  31  42 N9        30.24S
LANCASTER      SUNNY     54  32  43 NW9G17    30.25S
COATESVILLE    SUNNY     52  30  43 N12       30.25S
POTTSTOWN      SUNNY     52  30  43 N8        30.25S
BLUE BELL      SUNNY     50  32  50 N6        30.23S
DOYLESTOWN     SUNNY     54  32  43 MISG      30.22F
WILLOW GROVE   NOT AVBL
NORTH PHILA    SUNNY     55  30  38 N12G23    30.24F
PHILADELPHIA   MOSUNNY   54  30  40 NW10G21   30.23F
$$



USA.gov is the U.S. government's official web portal to all federal, state and local government web resources and services.